[[{"header":{"parameterUnit":"m.s-1","parameterCategory":1,"la1":30.2991,"la2":30.254,"lo1":-89.0895,"lo2":-89.0444,"dy":0.0017,"dx":0.0017,"nx":28,"ny":28,"refTime":"2025-05-30T09:00:00:Z","depth":0,"parameterNumber":2,"parameterNumberName":"U-component_of_WINDS"},"data":[0,0,0,0,0,0,0,0,0,0,0,0,0,0,0,0,0,0,0,0,0,0,0,0,0,0,0,0,0,0,0,0,0,0,0,0,0,0,0,0,0,0,0,0,0,0,0,0,0,0,0,0,0,0,0,0,0,0,2.6014,2.6015,0,2.615,2.6151,2.6153,2.6068,2.6064,2.606,2.6056,2.6197,2.6205,2.6212,0,0,0,0,0,0,0,0,0,0,0,0,0,2.5681,2.5688,2.6013,2.6015,2.6017,2.6149,2.6151,2.6153,2.6068,2.6063,2.6059,2.6054,2.6195,2.6204,2.6213,0,0,0,0,0,0,0,0,0,0,0,0,0,2.5822,2.569,2.6013,2.599,2.599,2.6149,2.6151,2.6154,2.6069,2.6063,2.6057,2.6052,2.6192,2.6203,2.6214,2.6404,0,0,2.6248,2.6253,0,0,0,0,0,0,0,0,2.5815,2.5835,2.5992,2.5992,2.5992,2.6085,2.6086,2.6237,2.6071,2.6039,2.6056,2.6049,2.6165,2.6178,2.6217,2.641,2.6416,2.6249,2.6256,2.6261,2.6264,0,0,0,0,0,0,0,2.5805,2.5828,2.6067,2.5994,2.5994,2.5974,2.5987,2.6114,2.6134,2.6041,2.6036,2.6053,2.6164,2.6206,2.622,2.6418,2.6249,2.6259,2.6266,2.627,2.6775,2.6781,0,0,0,0,0,0,2.5797,2.5821,2.6063,2.6071,2.5886,2.5985,2.6,2.6061,2.6133,2.6138,2.6058,2.6048,2.619,2.6207,2.6224,2.6452,2.6261,2.6271,2.6278,2.6768,2.6776,2.6783,0,0,0,0,0,0,2.579,2.5819,2.6057,2.5945,2.5973,2.5997,2.6067,2.6067,2.611,2.6145,2.6148,2.6098,2.6186,2.6208,2.636,2.6456,2.6276,2.6287,2.676,2.677,2.678,2.6909,0,0,0,0,0,0,2.5781,2.5817,2.5889,2.5947,2.598,2.6191,2.6073,2.6074,2.6129,2.6118,2.6183,2.6188,2.6183,2.6343,2.6371,2.6468,2.6295,2.6752,2.6765,2.6776,2.6896,2.6922,2.6944,0,0,0,0,0,2.5769,2.5921,2.5893,2.5923,2.607,2.6196,2.6215,2.6206,2.6137,2.621,2.6233,2.6186,2.644,2.636,2.639,2.6492,2.6746,2.6761,2.6776,2.6885,2.6917,2.6943,0,0,0,0,0,0,2.5875,2.5928,2.5898,2.6073,2.6131,2.6182,2.6274,2.6239,2.6319,2.6305,2.629,2.6306,2.6464,2.6492,2.6402,2.6679,2.6582,2.6604,2.6655,2.6685,2.6709,2.67,2.6305,0,0,0,0,0,2.5918,2.6016,2.6057,2.6207,2.6237,2.6251,2.6305,2.6293,2.6352,2.6377,2.641,2.647,2.6564,2.6626,2.6713,2.6899,2.6912,2.6984,2.7008,2.7027,2.7047,2.7148,2.718,2.6832,2.6832,2.6832,0,0,2.6009,2.605,2.6113,2.6229,2.6272,2.6374,2.6272,2.6384,2.646,2.6394,2.6539,2.6566,2.6632,2.6801,2.6877,2.683,2.7145,2.7046,2.7061,2.7071,2.7166,2.7199,2.7229,2.6842,2.6841,2.6839,0,0,2.6228,2.6268,2.6398,2.6443,2.651,2.6518,2.6549,2.6605,2.662,2.6765,2.6718,2.6808,2.6969,2.7018,2.7064,2.73,2.7261,2.7329,2.7455,2.7554,2.7581,2.7605,2.7691,2.7722,2.7348,2.7348,2.7348,0,2.6334,2.6485,2.6469,2.6585,2.6638,2.6582,2.6713,2.6758,2.6851,2.6889,2.6833,2.7034,2.7074,2.7255,2.7313,2.7351,2.7387,2.7323,2.7578,2.7602,2.7625,2.7706,2.7739,2.7356,2.7355,2.7355,2.7354,0,2.6612,2.6717,2.6814,2.6904,2.6967,2.7091,2.7094,2.716,2.7142,2.7155,2.7304,2.735,2.7447,2.7488,2.7471,2.7666,2.7635,2.7579,2.7482,2.7666,2.7743,2.7774,2.7368,2.7365,2.7362,2.736,0,0,2.6904,2.6982,2.7018,2.7058,2.7127,2.7209,2.7329,2.7423,2.748,2.7545,2.7647,2.7783,2.7732,2.7785,2.7773,2.7859,2.8044,2.7793,2.7794,2.7839,2.8264,2.8306,2.8343,2.8017,2.8023,2.8028,2.8258,0,2.7128,2.7338,2.7327,2.7525,2.7622,2.7569,2.7674,2.7728,2.7744,2.7829,2.7846,2.7944,2.7868,2.7899,2.7982,2.8004,2.813,2.7987,2.8113,2.8118,2.81,2.8382,2.8428,2.8644,2.8288,2.8293,2.8297,0,2.7418,2.7493,2.77,2.7754,2.7794,2.7889,2.7974,2.8056,2.8115,2.812,2.8179,2.8152,2.8274,2.8172,2.8341,2.8244,2.8294,2.8313,2.8321,2.8334,2.822,2.8405,2.8712,2.8746,2.8343,2.834,2.8336,0,2.7613,2.7764,2.7908,2.7944,2.801,2.8078,2.8108,2.8162,2.8219,2.8292,2.8329,2.8417,2.8465,2.8533,2.8531,2.8457,2.8703,2.86,2.8712,2.8712,2.8768,2.8765,2.909,2.8797,2.8797,2.8796,2.8796,0,2.7866,2.7995,2.7996,2.8085,2.8228,2.8214,2.8356,2.8379,2.8427,2.852,2.8478,2.8566,2.8557,2.8646,2.8645,2.8785,2.8807,2.8815,2.8814,2.8821,2.882,2.8855,2.8841,2.8805,2.8803,2.8801,2.88,0,2.8108,2.8114,2.8268,2.8317,2.8332,2.8436,2.8478,2.8562,2.8573,2.8691,2.8718,2.8735,2.8837,2.8841,2.8959,2.8958,2.913,2.9111,2.911,2.9107,2.9219,2.9209,2.958,2.9628,2.9302,2.9305,2.9308,0,2.8271,2.8369,2.8428,2.8487,2.8522,2.8617,2.8674,2.8663,2.8725,2.88,2.8875,2.8973,2.9051,2.9217,2.924,2.933,2.9314,2.9437,2.9327,2.9331,2.9318,2.9313,2.9323,2.946,2.9463,2.9466,2.9469,0,2.8559,2.8557,2.8641,2.8727,2.8796,2.8863,2.8925,2.8975,2.8971,2.9043,2.9146,2.9207,2.9326,2.9424,2.9511,2.9542,2.9506,2.9503,2.9534,2.9543,2.9539,2.9544,2.9171,2.9495,2.9492,2.949,2.9489,2.9488,2.8768,2.8853,2.8908,2.9003,2.9048,2.9107,2.9188,2.9209,2.9295,2.9391,2.9379,2.9494,2.955,2.9663,2.9702,2.9792,2.975,2.9794,2.9806,2.9817,2.983,2.9522,2.9808,2.9807,2.9806,2.9805,2.9805,0,2.9056,2.9088,2.9176,2.9263,2.9338,2.9295,2.9361,2.9427,2.9529,2.9584,2.9661,2.978,2.9874,2.9905,2.9996,3.0063,3.0048,3.0087,3.0084,3.0092,2.9862,2.9827,3.0098,3.0098,3.0098,3.0097,3.0097,3.0097,2.9215,2.9356,2.936,2.9524,2.9555,2.9667,2.9709,2.9762,2.9806,2.9941,3.0019,3.0037,3.0083,3.0177,3.0262,3.0268,3.0305,3.0352,3.0351,3.0137,3.0108,3.008,3.0047,3.0359,3.0359,3.0573,3.0575,3.0577]},{"header":{"parameterUnit":"m.s-1","parameterCategory":1,"la1":30.2991,"la2":30.254,"lo1":-89.0895,"lo2":-89.0444,"dy":0.0017,"dx":0.0017,"nx":28,"ny":28,"refTime":"2025-05-30T09:00:00:Z","depth":0,"parameterNumber":3,"parameterNumberName":"V-component_of_WINDS"},"data":[0,0,0,0,0,0,0,0,0,0,0,0,0,0,0,0,0,0,0,0,0,0,0,0,0,0,0,0,0,0,0,0,0,0,0,0,0,0,0,0,0,0,0,0,0,0,0,0,0,0,0,0,0,0,0,0,0,0,-0.4486,-0.4485,0,-0.4466,-0.4466,-0.4466,-0.4506,-0.4507,-0.4509,-0.451,-0.4486,-0.4484,-0.4483,0,0,0,0,0,0,0,0,0,0,0,0,0,-0.4555,-0.4553,-0.4486,-0.4485,-0.4485,-0.4466,-0.4466,-0.4466,-0.4506,-0.4507,-0.4509,-0.4511,-0.4487,-0.4485,-0.4482,0,0,0,0,0,0,0,0,0,0,0,0,0,-0.4529,-0.4553,-0.4486,-0.4503,-0.4504,-0.4466,-0.4466,-0.4466,-0.4505,-0.4507,-0.4509,-0.4511,-0.4488,-0.4485,-0.4482,-0.4425,0,0,-0.4473,-0.4472,0,0,0,0,0,0,0,0,-0.453,-0.4526,-0.4501,-0.4502,-0.4503,-0.4491,-0.4482,-0.4452,-0.4505,-0.4505,-0.451,-0.4512,-0.4486,-0.4483,-0.4475,-0.4424,-0.4423,-0.4473,-0.4472,-0.447,-0.447,0,0,0,0,0,0,0,-0.4532,-0.4527,-0.4478,-0.45,-0.4502,-0.4511,-0.4509,-0.4476,-0.4484,-0.4505,-0.4508,-0.4505,-0.4487,-0.4478,-0.4475,-0.4423,-0.4473,-0.4471,-0.4469,-0.4468,-0.4324,-0.4322,0,0,0,0,0,0,-0.4532,-0.4529,-0.4478,-0.4477,-0.4522,-0.4508,-0.4506,-0.4493,-0.4485,-0.4486,-0.4504,-0.4507,-0.4482,-0.4478,-0.4474,-0.4407,-0.447,-0.4468,-0.4466,-0.4326,-0.4323,-0.4321,0,0,0,0,0,0,-0.4534,-0.4527,-0.4479,-0.4504,-0.4498,-0.4505,-0.4489,-0.4491,-0.4482,-0.4484,-0.4485,-0.4493,-0.4483,-0.4478,-0.4437,-0.4406,-0.4466,-0.4464,-0.4329,-0.4325,-0.4322,-0.4271,0,0,0,0,0,0,-0.4535,-0.4528,-0.4506,-0.4503,-0.4497,-0.4443,-0.4487,-0.4489,-0.4478,-0.4482,-0.4474,-0.4475,-0.4484,-0.4441,-0.4434,-0.4404,-0.4462,-0.4331,-0.4327,-0.4323,-0.4276,-0.4267,-0.4259,0,0,0,0,0,-0.4538,-0.4492,-0.4505,-0.4499,-0.4471,-0.4441,-0.4438,-0.4451,-0.4475,-0.4453,-0.4455,-0.4475,-0.4411,-0.4437,-0.4429,-0.4397,-0.4333,-0.4328,-0.4324,-0.4279,-0.4268,-0.4259,0,0,0,0,0,0,-0.449,-0.4492,-0.4506,-0.4458,-0.445,-0.4448,-0.4421,-0.4438,-0.4421,-0.4426,-0.4442,-0.444,-0.4396,-0.4393,-0.4421,-0.4342,-0.4376,-0.437,-0.4345,-0.4335,-0.4327,-0.4327,-0.4459,0,0,0,0,0,-0.4474,-0.4451,-0.4454,-0.4411,-0.4406,-0.4414,-0.4402,-0.4413,-0.4404,-0.44,-0.4398,-0.4388,-0.4366,-0.435,-0.433,-0.4276,-0.4275,-0.4251,-0.4242,-0.4235,-0.4229,-0.42,-0.4189,-0.4305,-0.4305,-0.4305,0,0,-0.444,-0.4438,-0.4423,-0.4401,-0.4396,-0.437,-0.4411,-0.4382,-0.4363,-0.4395,-0.4357,-0.4355,-0.4345,-0.4297,-0.4276,-0.4293,-0.4197,-0.4229,-0.4224,-0.4221,-0.4194,-0.4183,-0.4173,-0.4302,-0.4303,-0.4303,0,0,-0.4366,-0.4363,-0.4327,-0.4321,-0.4313,-0.4319,-0.431,-0.4307,-0.4307,-0.4269,-0.4293,-0.4271,-0.4232,-0.4224,-0.4214,-0.4139,-0.4156,-0.4132,-0.4087,-0.4059,-0.405,-0.4042,-0.4014,-0.4004,-0.4126,-0.4125,-0.4125,0,-0.4324,-0.4288,-0.4306,-0.4276,-0.4265,-0.4295,-0.4258,-0.4252,-0.4236,-0.4228,-0.4248,-0.4201,-0.4196,-0.4147,-0.4129,-0.4121,-0.4111,-0.4131,-0.405,-0.4042,-0.4035,-0.4008,-0.3998,-0.4122,-0.4123,-0.4123,-0.4123,0,-0.4237,-0.4212,-0.4184,-0.417,-0.4157,-0.4124,-0.4135,-0.412,-0.4133,-0.4137,-0.4098,-0.4093,-0.4072,-0.4062,-0.4073,-0.4015,-0.4025,-0.4047,-0.4082,-0.402,-0.3996,-0.3986,-0.4118,-0.4119,-0.412,-0.4121,0,0,-0.4129,-0.4128,-0.4117,-0.4111,-0.4105,-0.4085,-0.4054,-0.4035,-0.4021,-0.401,-0.3983,-0.3951,-0.3972,-0.3961,-0.3972,-0.3948,-0.3888,-0.3973,-0.3973,-0.3956,-0.3822,-0.3804,-0.3792,-0.39,-0.3899,-0.3897,-0.3822,0,-0.4055,-0.4001,-0.4017,-0.3963,-0.3939,-0.3968,-0.3941,-0.3934,-0.3937,-0.3917,-0.3921,-0.3897,-0.3927,-0.3921,-0.3898,-0.39,-0.386,-0.3906,-0.3874,-0.3873,-0.3874,-0.3779,-0.376,-0.3689,-0.3813,-0.3811,-0.381,0,-0.396,-0.3947,-0.3891,-0.389,-0.388,-0.3855,-0.384,-0.3821,-0.3814,-0.3818,-0.3807,-0.3824,-0.3792,-0.3828,-0.3785,-0.3815,-0.3803,-0.3803,-0.38,-0.3796,-0.3836,-0.3771,-0.3667,-0.3656,-0.3795,-0.3796,-0.3797,0,-0.3886,-0.3854,-0.3817,-0.3811,-0.3809,-0.3791,-0.3789,-0.3784,-0.3772,-0.3758,-0.375,-0.3733,-0.3723,-0.3709,-0.372,-0.3746,-0.3674,-0.3711,-0.3675,-0.3675,-0.3657,-0.3658,-0.3548,-0.3652,-0.3652,-0.3653,-0.3653,0,-0.38,-0.3764,-0.3783,-0.376,-0.3721,-0.3739,-0.37,-0.3701,-0.3697,-0.3673,-0.3698,-0.3675,-0.3692,-0.3671,-0.368,-0.3642,-0.3638,-0.3639,-0.3642,-0.3636,-0.3636,-0.3627,-0.3632,-0.365,-0.365,-0.3651,-0.3651,0,-0.3709,-0.3721,-0.3681,-0.3684,-0.3683,-0.3654,-0.3655,-0.3633,-0.364,-0.361,-0.3604,-0.3613,-0.359,-0.3601,-0.3576,-0.3582,-0.3533,-0.3542,-0.3535,-0.3537,-0.35,-0.3503,-0.338,-0.3364,-0.348,-0.3479,-0.3478,0,-0.3652,-0.3626,-0.3625,-0.3612,-0.3609,-0.3588,-0.3576,-0.3594,-0.358,-0.3571,-0.355,-0.353,-0.3514,-0.3475,-0.3479,-0.346,-0.3468,-0.3427,-0.3466,-0.3461,-0.3466,-0.3467,-0.3464,-0.3418,-0.3417,-0.3416,-0.3415,0,-0.355,-0.3558,-0.3541,-0.3526,-0.3512,-0.3501,-0.3491,-0.3479,-0.3497,-0.3481,-0.3458,-0.3446,-0.3421,-0.34,-0.3384,-0.3381,-0.34,-0.3403,-0.3394,-0.3387,-0.3383,-0.3383,-0.3512,-0.3405,-0.3406,-0.3407,-0.3407,-0.3408,-0.3474,-0.3452,-0.3448,-0.3428,-0.3424,-0.3415,-0.3395,-0.3399,-0.3381,-0.3363,-0.3375,-0.3348,-0.3342,-0.3323,-0.3318,-0.3297,-0.3313,-0.33,-0.3296,-0.3292,-0.3286,-0.3388,-0.3294,-0.3295,-0.3295,-0.3295,-0.3295,0,-0.3372,-0.3372,-0.3354,-0.3341,-0.3325,-0.3347,-0.3339,-0.3324,-0.33,-0.3294,-0.3278,-0.3252,-0.3232,-0.3236,-0.3217,-0.32,-0.3208,-0.3194,-0.3194,-0.3193,-0.3273,-0.3283,-0.3188,-0.3188,-0.3188,-0.3188,-0.3188,-0.3188,-0.3317,-0.328,-0.3288,-0.3249,-0.325,-0.3224,-0.3217,-0.3209,-0.3204,-0.3175,-0.3159,-0.3162,-0.3159,-0.3141,-0.3123,-0.3125,-0.3116,-0.3099,-0.3103,-0.3177,-0.3188,-0.3198,-0.3207,-0.3097,-0.3097,-0.3025,-0.3025,-0.3024]}]]